#
# The Tor Project
#
# URL: https://metrics.torproject.org/bandwidth.csv?start=2012-01-01&end=2015-05-03
#
date,advbw,bwhist
2012-01-01,17.680314512,10.849486496
2012-01-02,17.824808904,11.190195332
2012-01-03,17.90103304,10.535851352
2012-01-04,17.727737528,10.961273772
2012-01-05,17.734718056,10.995338496
2012-01-06,17.768310392,11.047000908
2012-01-07,18.063271584,11.08467978
2012-01-08,,10.70147106
2012-01-09,18.435801592,10.953783156
2012-01-10,18.390517016,11.1458774
2012-01-11,18.227137656,10.96979844
2012-01-12,18.076574336,11.028878376
2012-01-13,18.049581864,11.03414272
2012-01-14,18.24741844,11.369072244
2012-01-15,18.414627048,11.260194792
2012-01-16,18.144085376,11.24407574
2012-01-17,18.205334688,11.246734068
2012-01-18,18.4854522,11.27972032
2012-01-19,18.598603392,11.162993024
2012-01-20,18.82427156,11.519289528
2012-01-21,18.954495392,11.679188868
2012-01-22,19.177802296,11.73472904
2012-01-23,19.07645556,11.541686172
2012-01-24,19.365941536,11.869037676
2012-01-25,19.434506016,12.2610421
2012-01-26,19.665803464,12.515011664
2012-01-27,19.853792888,12.815201728
2012-01-28,19.955111776,12.860866296
2012-01-29,19.682883768,12.721963588
2012-01-30,19.248534144,12.30599052
2012-01-31,18.833481384,11.953104416
2012-02-01,18.81520476,12.116857456
2012-02-02,19.09590464,12.315299088
2012-02-03,19.308607296,12.62422938
2012-02-04,19.903988264,13.023857604
2012-02-05,20.568837112,13.195549972
2012-02-06,20.704042032,12.637102568
2012-02-07,20.11326048,12.680804416
2012-02-08,20.107318536,12.839809772
2012-02-09,20.78801724,12.817658324
2012-02-10,20.4481238,12.556406352
2012-02-11,20.297564992,12.935998748
2012-02-12,20.326619216,12.820114048
2012-02-13,20.380045352,12.736485064
2012-02-14,20.176605032,12.5395964
2012-02-15,20.355711024,12.42590804
2012-02-16,20.510246112,12.696914424
2012-02-17,20.569119112,12.844878556
2012-02-18,20.523571336,13.22584106
2012-02-19,20.956354176,13.063943812
2012-02-20,20.891071936,13.034879776
2012-02-21,20.986147096,13.19366154
2012-02-22,21.199238952,13.668406252
2012-02-23,21.518500632,13.538390416
2012-02-24,21.22008288,13.095119864
2012-02-25,21.591495056,13.739875332
2012-02-26,21.95764832,13.67940666
2012-02-27,22.09046476,13.644356
2012-02-28,21.447791488,13.520205124
2012-02-29,21.433149528,13.38016712
2012-03-01,21.522872144,13.481502408
2012-03-02,21.535329224,13.165858032
2012-03-03,21.372081728,13.19062662
2012-03-04,21.152860216,13.567643356
2012-03-05,21.19283976,13.363045932
2012-03-06,21.315543168,13.41551018
2012-03-07,21.129472648,13.455565156
2012-03-08,21.068914312,13.5351668
2012-03-09,20.578447024,13.651667804
2012-03-10,20.595101248,13.170612536
2012-03-11,20.738923128,13.692843144
2012-03-12,21.403061016,13.819237092
2012-03-13,21.1268296,13.589106556
2012-03-14,20.775640488,13.251438668
2012-03-15,20.5037374,13.66022316
2012-03-16,20.617200904,13.718003944
2012-03-17,20.831909736,13.791948716
2012-03-18,21.080268232,13.719640552
2012-03-19,20.769815032,13.672200672
2012-03-20,20.577853976,13.306598688
2012-03-21,20.548297312,13.417001936
2012-03-22,20.844797216,13.658603736
2012-03-23,21.261764872,13.44107216
2012-03-24,21.327380032,13.907979916
2012-03-25,21.18904736,13.886733812
2012-03-26,20.94798732,13.857890028
2012-03-27,20.844671008,13.870754624
2012-03-28,20.6362524,13.717242512
2012-03-29,20.689072504,13.6850309
2012-03-30,20.440330104,13.888774012
2012-03-31,21.352942536,14.034003428
2012-04-01,21.713091568,14.31550884
2012-04-02,21.777913248,14.393428196
2012-04-03,21.686211704,13.948077764
2012-04-04,21.682042,14.10924184
2012-04-05,21.589159424,14.142526976
2012-04-06,21.378274488,14.382170096
2012-04-07,21.492810432,14.263201304
2012-04-08,21.608023328,14.187107748
2012-04-09,21.565760456,14.360453708
2012-04-10,21.576533568,14.280385316
2012-04-11,21.760714592,14.291652804
2012-04-12,21.671183808,14.456310888
2012-04-13,21.448843608,14.28079324
2012-04-14,21.472415184,14.013501644
2012-04-15,21.374687032,13.885406488
2012-04-16,21.249857264,14.137754544
2012-04-17,21.381208904,13.99212884
2012-04-18,21.44706468,14.003005684
2012-04-19,21.30130568,13.878033856
2012-04-20,20.747652024,13.922885784
2012-04-21,20.702437112,13.782760648
2012-04-22,20.714179496,13.792074212
2012-04-23,20.642493424,13.715464024
2012-04-24,20.54362276,13.67340188
2012-04-25,20.799935592,13.934792092
2012-04-26,21.416724392,14.118041496
2012-04-27,21.648280224,14.263552028
2012-04-28,21.715244,14.243459276
2012-04-29,21.865215696,14.312435972
2012-04-30,22.010891416,14.321777332
2012-05-01,22.00763268,14.270463984
2012-05-02,22.063188584,14.26582254
2012-05-03,22.197694328,14.383886756
2012-05-04,22.434203584,14.57446532
2012-05-05,22.409532096,14.460227476
2012-05-06,22.457376512,14.168354324
2012-05-07,21.78376876,14.092644244
2012-05-08,21.706958832,13.797059008
2012-05-09,21.848131256,14.004659692
2012-05-10,22.06686376,14.281905244
2012-05-11,21.68854636,14.064134628
2012-05-12,21.970531512,14.288874228
2012-05-13,22.730920264,14.408143208
2012-05-14,22.561145776,14.128260372
2012-05-15,22.088514784,14.241809652
2012-05-16,21.793362512,14.22552526
2012-05-17,21.976076032,14.506638624
2012-05-18,22.086076544,14.5077432
2012-05-19,21.9244048,14.274905984
2012-05-20,21.793352728,14.14117762
2012-05-21,21.566019536,14.336461416
2012-05-22,21.49405392,14.356581132
2012-05-23,21.581687104,14.375738728
2012-05-24,21.710269272,14.34820566
2012-05-25,21.821264744,14.331056564
2012-05-26,22.0665932,14.235129288
2012-05-27,22.0736992,14.47111936
2012-05-28,21.919119056,14.599664556
2012-05-29,21.92431856,14.42089
2012-05-30,22.132116976,14.667946324
2012-05-31,22.304415072,14.842237244
2012-06-01,22.874696632,14.979084184
2012-06-02,22.771943704,15.15760714
2012-06-03,22.913857512,14.98234792
2012-06-04,22.927868112,14.926700084
2012-06-05,22.945766664,15.015538856
2012-06-06,23.029498176,15.08448878
2012-06-07,23.190214024,14.767551488
2012-06-08,23.10553764,14.68175738
2012-06-09,22.898999304,14.86294792
2012-06-10,22.820379704,14.60697222
2012-06-11,22.656163464,14.704598528
2012-06-12,22.365838024,14.670099832
2012-06-13,22.403398032,14.750715212
2012-06-14,22.603671712,14.574967204
2012-06-15,22.35616512,14.375025732
2012-06-16,22.161491192,14.43625646
2012-06-17,22.253664816,14.443355372
2012-06-18,22.372174272,14.458329036
2012-06-19,22.60658536,14.781541664
2012-06-20,22.6624928,14.846583356
2012-06-21,22.76801188,14.480071028
2012-06-22,22.805098968,14.520478164
2012-06-23,22.522831232,14.593020076
2012-06-24,23.030594344,14.672103924
2012-06-25,23.13156484,15.098754692
2012-06-26,23.281408792,14.985699108
2012-06-27,23.37484232,14.949041868
2012-06-28,23.195390568,14.766977376
2012-06-29,22.877814072,14.62572974
2012-06-30,22.361320976,14.365096104
2012-07-01,22.260422216,14.43021872
2012-07-02,22.860198592,14.651232856
2012-07-03,22.704096792,14.498875524
2012-07-04,22.84248628,14.62637644
2012-07-05,22.222180496,14.409879304
2012-07-06,22.18535272,14.643273128
2012-07-07,23.169799112,15.170093828
2012-07-08,23.118235912,15.188084356
2012-07-09,23.127256624,15.31003522
2012-07-10,22.993769768,14.9894355
2012-07-11,23.042355496,14.913393
2012-07-12,23.158228376,14.928509984
2012-07-13,23.203243064,14.643997696
2012-07-14,22.714407176,14.887870688
2012-07-15,22.974109104,14.806902112
2012-07-16,22.797153032,14.455405028
2012-07-17,22.45716984,15.173200424
2012-07-18,22.994130088,15.275763016
2012-07-19,23.078446368,15.266020408
2012-07-20,22.999964616,14.756407292
2012-07-21,22.88311372,14.99360342
2012-07-22,22.979956576,14.722848904
2012-07-23,22.828816624,15.107228764
2012-07-24,22.845765824,15.314714476
2012-07-25,23.202564368,15.459848732
2012-07-26,23.483598816,15.452481544
2012-07-27,23.82557036,15.537565372
2012-07-28,23.876492256,15.993685464
2012-07-29,24.01211988,16.182956692
2012-07-30,24.469480568,16.314398476
2012-07-31,24.491504728,16.561837248
2012-08-01,24.755681728,16.363537652
2012-08-02,24.46628096,16.059649052
2012-08-03,23.920550992,16.151163784
2012-08-04,24.030639824,16.53294972
2012-08-05,24.310186704,16.631807864
2012-08-06,24.213002752,16.7934009
2012-08-07,24.321699296,16.800492688
2012-08-08,24.470871056,16.258964312
2012-08-09,24.69898996,16.30284408
2012-08-10,25.266570856,16.365505732
2012-08-11,25.404293336,16.531435364
2012-08-12,25.33497048,16.086257268
2012-08-13,25.264915184,16.40557662
2012-08-14,24.992250784,16.5359554
2012-08-15,25.056333016,16.54945816
2012-08-16,24.969789304,16.612080652
2012-08-17,24.768416456,16.757087632
2012-08-18,24.845681792,17.187740188
2012-08-19,24.9753292,16.721175752
2012-08-20,24.919167872,17.145729348
2012-08-21,25.091733728,16.943930708
2012-08-22,24.854091144,16.86090656
2012-08-23,24.534883448,16.908500056
2012-08-24,24.696199768,16.933000388
2012-08-25,24.961812608,17.074506828
2012-08-26,25.846356144,16.57190468
2012-08-27,25.44669036,16.997508456
2012-08-28,25.813591344,17.076758308
2012-08-29,25.770733832,17.082122848
2012-08-30,26.73703104,15.8440264
2012-08-31,27.193669816,17.496561956
2012-09-01,27.509506192,16.862091128
2012-09-02,27.604834048,16.61178586
2012-09-03,27.41068436,16.5422585
2012-09-04,27.40566392,16.62819372
2012-09-05,27.099564832,16.706977124
2012-09-06,27.713992672,16.99215326
2012-09-07,27.573950128,16.361537964
2012-09-08,27.37089844,17.169648816
2012-09-09,27.341985272,17.784521004
2012-09-10,27.777693032,17.108978944
2012-09-11,28.050981584,17.553396972
2012-09-12,28.210322648,17.455679184
2012-09-13,28.007248632,16.951336236
2012-09-14,27.900101832,17.424259776
2012-09-15,28.209036368,17.817075392
2012-09-16,28.0021888,17.270055928
2012-09-17,27.847487456,17.082144776
2012-09-18,27.307461872,17.28489986
2012-09-19,27.345898968,16.827551644
2012-09-20,26.85834172,17.01612542
2012-09-21,26.916617656,16.79859142
2012-09-22,26.711165528,17.280480216
2012-09-23,26.800062984,17.801684096
2012-09-24,27.504965248,17.087108288
2012-09-25,27.201570312,17.594111312
2012-09-26,27.33800004,17.316760192
2012-09-27,27.546867656,17.4071717
2012-09-28,27.677614176,17.466970048
2012-09-29,27.649817688,17.654760656
2012-09-30,27.884209512,17.437146144
2012-10-01,28.14159024,16.933679884
2012-10-02,27.901259312,16.963519356
2012-10-03,26.790884064,17.12872246
2012-10-04,27.353149144,17.434023952
2012-10-05,27.840945544,17.382334672
2012-10-06,27.886555728,17.732793616
2012-10-07,27.301006256,17.35790798
2012-10-08,28.032760352,17.305203068
2012-10-09,28.061546736,17.402916676
2012-10-10,27.591512912,17.295887928
2012-10-11,27.256789088,17.042985948
2012-10-12,27.471900824,17.797325792
2012-10-13,27.906625976,18.088421564
2012-10-14,28.250544376,18.042591448
2012-10-15,28.241245368,17.324350336
2012-10-16,27.59742028,17.490616568
2012-10-17,27.961224184,17.221813012
2012-10-18,27.922320008,16.989060424
2012-10-19,27.416327248,16.802189212
2012-10-20,27.165771232,17.074604328
2012-10-21,26.888005016,16.701097604
2012-10-22,27.255148512,17.072616424
2012-10-23,26.906533744,16.628916648
2012-10-24,26.619022088,17.234214652
2012-10-25,26.2515548,17.000529
2012-10-26,25.900648,16.693942016
2012-10-27,26.460760744,17.51171318
2012-10-28,26.296742512,18.032270068
2012-10-29,26.663460656,18.046319104
2012-10-30,26.711071552,17.47985474
2012-10-31,26.219538584,17.188942728
2012-11-01,26.594721896,17.269724276
2012-11-02,27.289390744,17.592629636
2012-11-03,27.723580568,17.993235612
2012-11-04,27.971324088,17.86104424
2012-11-05,27.042018024,17.16661324
2012-11-06,26.573403392,16.839100028
2012-11-07,28.451701496,18.06924488
2012-11-08,28.489075208,18.215095808
2012-11-09,28.541208368,17.931642244
2012-11-10,28.446809784,18.4040962
2012-11-11,29.014640848,18.428505788
2012-11-12,28.35520432,17.959312312
2012-11-13,28.373901296,18.398405744
2012-11-14,29.910840288,17.737235856
2012-11-15,29.403285744,18.36008184
2012-11-16,29.273975528,18.85461028
2012-11-17,28.960085552,19.552750324
2012-11-18,28.928598632,19.21710964
2012-11-19,29.17230176,19.251737412
2012-11-20,29.307702704,18.978996304
2012-11-21,29.504111888,19.109998004
2012-11-22,29.67485432,19.511980992
2012-11-23,29.97854152,19.790661612
2012-11-24,30.262271472,19.442219392
2012-11-25,29.91739056,19.488617444
2012-11-26,29.922550928,19.303708776
2012-11-27,29.773351352,19.210604284
2012-11-28,29.811268792,19.155400348
2012-11-29,29.78819768,18.979044936
2012-11-30,29.836046224,18.801173696
2012-12-01,30.694095672,19.265491344
2012-12-02,30.690824672,19.6331725
2012-12-03,30.741991672,18.72708758
2012-12-04,30.629745736,18.085316532
2012-12-05,29.993895216,17.457353612
2012-12-06,29.04632444,18.141354616
2012-12-07,29.6234766,18.477984292
2012-12-08,30.28167856,18.314372328
2012-12-09,29.568064496,18.346427152
2012-12-10,29.492384544,17.90753106
2012-12-11,29.17843984,18.127120752
2012-12-12,29.361232984,18.455541504
2012-12-13,29.226961776,18.392606808
2012-12-14,29.475828224,17.4170008
2012-12-15,29.513488264,18.436313688
2012-12-16,29.60098512,17.853721504
2012-12-17,28.986448408,17.507296156
2012-12-18,28.263703848,18.824590908
2012-12-19,28.571162632,19.355568488
2012-12-20,28.729496432,18.110171024
2012-12-21,29.098205504,19.001214048
2012-12-22,28.822179584,18.905043136
2012-12-23,28.95188516,18.975762752
2012-12-24,28.160715296,18.374956684
2012-12-25,27.672277256,18.36301106
2012-12-26,27.632547472,18.395084252
2012-12-27,27.277043544,18.098967704
2012-12-28,26.086375792,17.613620372
2012-12-29,26.144921216,18.073282164
2012-12-30,26.638425,18.260724772
2012-12-31,27.219764976,18.044478192
2013-01-01,26.915199936,17.657249128
2013-01-02,27.263231368,18.335333736
2013-01-03,28.149994224,17.860801108
2013-01-04,28.49637668,17.655953456
2013-01-05,28.057311776,18.233903208
2013-01-06,28.029504904,18.54288146
2013-01-07,29.571129048,18.02736682
2013-01-08,28.737422624,17.736923556
2013-01-09,28.089413016,17.931208188
2013-01-10,28.23189044,17.985231888
2013-01-11,28.635393768,18.923636644
2013-01-12,29.804205856,19.648790672
2013-01-13,30.145576192,19.376925084
2013-01-14,30.20991292,19.84670746
2013-01-15,30.220574272,18.994880716
2013-01-16,30.230917,18.619450148
2013-01-17,30.316506952,18.496978736
2013-01-18,29.606655312,18.107620204
2013-01-19,29.492852112,18.870840912
2013-01-20,29.574002736,18.836774884
2013-01-21,29.718849168,18.310187816
2013-01-22,29.483566224,18.491317572
2013-01-23,29.390987232,18.66812958
2013-01-24,30.102087688,18.351893112
2013-01-25,30.03622776,18.396008744
2013-01-26,29.957432152,18.359268336
2013-01-27,30.103397288,18.079973868
2013-01-28,30.280703992,18.291796776
2013-01-29,29.5318888,17.98630056
2013-01-30,30.474089992,18.031222156
2013-01-31,28.930197104,17.83177916
2013-02-01,29.688071736,18.33030298
2013-02-02,29.7364684,18.304619536
2013-02-03,29.208347952,18.195662972
2013-02-04,28.80993224,17.840930216
2013-02-05,28.61538296,17.355241096
2013-02-06,28.59362196,17.446583328
2013-02-07,28.857918928,17.995447892
2013-02-08,28.959470096,18.807665848
2013-02-09,29.089248808,18.72238268
2013-02-10,29.221002352,17.956652936
2013-02-11,29.432110648,18.735354212
2013-02-12,29.43297216,18.188401388
2013-02-13,29.189637784,17.593915496
2013-02-14,28.49848128,18.292530164
2013-02-15,27.277086024,18.25599174
2013-02-16,28.382334312,17.462408448
2013-02-17,28.822372336,18.245238064
2013-02-18,29.391111784,18.096327068
2013-02-19,28.954794816,18.559902016
2013-02-20,29.754629912,18.560313876
2013-02-21,29.076945064,18.609237512
2013-02-22,29.191563288,18.658072068
2013-02-23,28.854580432,18.108552756
2013-02-24,28.65688628,17.90603316
2013-02-25,28.495028784,17.873442932
2013-02-26,28.534174096,17.620133792
2013-02-27,27.828735528,18.326331624
2013-02-28,28.089983056,18.007780928
2013-03-01,28.643666024,17.77895954
2013-03-02,27.849130752,18.493653312
2013-03-03,27.776816816,18.604959868
2013-03-04,29.672039872,19.349950352
2013-03-05,29.093626056,19.240058996
2013-03-06,28.458333584,19.226088948
2013-03-07,28.425879504,18.590833164
2013-03-08,28.182860616,18.618205652
2013-03-09,28.440941992,19.210872368
2013-03-10,29.085157248,19.13730018
2013-03-11,29.895283464,19.084369756
2013-03-12,30.226738136,18.281047264
2013-03-13,30.277958912,18.320584776
2013-03-14,29.955611688,18.504991168
2013-03-15,30.194682664,18.425436928
2013-03-16,29.941837872,19.344229068
2013-03-17,30.938895096,18.891102604
2013-03-18,30.616696936,18.829100752
2013-03-19,31.086069432,18.735411232
2013-03-20,31.400030456,18.902878456
2013-03-21,31.30141836,18.801262916
2013-03-22,31.263256248,18.70459302
2013-03-23,31.41551028,19.361144064
2013-03-24,30.460570872,18.932858736
2013-03-25,29.584461952,19.123536416
2013-03-26,29.44325344,19.112033812
2013-03-27,29.329036936,18.776520444
2013-03-28,29.227720848,18.904069748
2013-03-29,29.472684216,18.490629688
2013-03-30,28.597709792,18.839954308
2013-03-31,28.764691696,19.054388388
2013-04-01,29.24622884,19.613540972
2013-04-02,29.500867312,19.418427932
2013-04-03,29.44042412,19.387961544
2013-04-04,29.043459984,19.41262878
2013-04-05,28.469426416,19.541525476
2013-04-06,28.794617024,19.772484832
2013-04-07,28.815117416,19.506217964
2013-04-08,28.669941496,19.232019792
2013-04-09,28.668121256,19.04589478
2013-04-10,29.699811216,19.282114584
2013-04-11,29.806110336,19.026334988
2013-04-12,29.493445176,19.520667176
2013-04-13,29.373750184,19.42739522
2013-04-14,29.410033328,19.301960904
2013-04-15,30.184311616,19.416851144
2013-04-16,30.38807496,19.386206548
2013-04-17,30.437892688,19.559638392
2013-04-18,30.687680832,19.55440198
2013-04-19,30.751708272,19.60022852
2013-04-20,30.598232712,20.37099894
2013-04-21,30.741457728,20.32094368
2013-04-22,30.324424112,19.95656676
2013-04-23,30.52920192,20.151736712
2013-04-24,30.687323984,20.043769228
2013-04-25,31.145021168,20.168819088
2013-04-26,31.22442928,20.27827166
2013-04-27,31.243828624,20.619626504
2013-04-28,31.327995528,20.346138904
2013-04-29,31.94613244,20.635852544
2013-04-30,32.137290656,20.189948848
2013-05-01,32.472725496,20.7829587
2013-05-02,32.513865624,20.21324622
2013-05-03,32.489207936,21.136323584
2013-05-04,32.42523708,21.498709464
2013-05-05,32.495407952,20.875515648
2013-05-06,32.568830344,21.473541432
2013-05-07,32.524366976,20.952261552
2013-05-08,32.561329952,20.89462924
2013-05-09,32.682042568,21.160515884
2013-05-10,32.653873448,21.087957848
2013-05-11,32.659797136,21.415809884
2013-05-12,32.836705712,20.94388046
2013-05-13,32.665657952,20.559191736
2013-05-14,32.580834408,20.7278631
2013-05-15,32.440560096,20.266558972
2013-05-16,32.286030032,20.24963362
2013-05-17,32.552366,20.917858024
2013-05-18,32.965887784,21.347565368
2013-05-19,32.897132472,21.38425992
2013-05-20,33.20076676,21.664123616
2013-05-21,33.380426112,21.203270264
2013-05-22,33.32291948,20.931151064
2013-05-23,33.264407016,21.073993972
2013-05-24,33.120055112,21.136349092
2013-05-25,32.659526816,21.592799776
2013-05-26,33.033952728,21.252042188
2013-05-27,32.957762512,21.074310996
2013-05-28,32.85441112,21.249313612
2013-05-29,33.112750312,21.340859972
2013-05-30,33.579682896,21.476981108
2013-05-31,33.812161384,21.471399084
2013-06-01,34.484079784,21.74198042
2013-06-02,34.907669704,21.903093928
2013-06-03,34.64638444,22.091470764
2013-06-04,34.583488296,21.35410112
2013-06-05,34.12080928,21.022037612
2013-06-06,33.295957992,20.529505916
2013-06-07,32.516755168,20.724254264
2013-06-08,32.959383192,20.716260304
2013-06-09,33.338366744,20.953795972
2013-06-10,33.320824472,21.473765004
2013-06-11,33.83177508,21.391093464
2013-06-12,33.81118556,21.030591196
2013-06-13,34.213369624,21.023572628
2013-06-14,34.4934874,21.016890516
2013-06-15,34.416727096,21.290836868
2013-06-16,34.361462784,21.060565276
2013-06-17,33.949035704,21.074148708
2013-06-18,33.884790512,20.751771412
2013-06-19,33.975602016,20.910087064
2013-06-20,34.159749296,21.38722442
2013-06-21,33.88333268,21.276252664
2013-06-22,33.806032272,21.618938484
2013-06-23,34.135387528,21.393942388
2013-06-24,34.4643218,21.503319548
2013-06-25,34.952274376,21.3152964
2013-06-26,34.380693,21.229322596
2013-06-27,34.518362896,21.408987824
2013-06-28,34.9709188,21.548821212
2013-06-29,35.249852832,21.894638852
2013-06-30,35.145853344,21.606381408
2013-07-01,35.700035992,21.801928272
2013-07-02,35.950982272,21.35058002
2013-07-03,35.00631468,20.87237636
2013-07-04,34.764871728,21.268863704
2013-07-05,35.352462776,21.727832476
2013-07-06,35.627857536,21.860826428
2013-07-07,35.459496136,21.1119037
2013-07-08,35.187908864,21.487244764
2013-07-09,35.356784952,21.104224724
2013-07-10,35.16371,20.477928388
2013-07-11,34.604585672,20.284873068
2013-07-12,34.36546092,20.790070792
2013-07-13,35.048225872,21.175662436
2013-07-14,35.461104616,21.238964504
2013-07-15,35.826840016,21.938983864
2013-07-16,35.680933424,21.803848636
2013-07-17,35.4308736,21.707849936
2013-07-18,35.101356408,21.665172756
2013-07-19,34.993508288,21.757420972
2013-07-20,35.084777744,21.784324092
2013-07-21,35.547090072,21.961588892
2013-07-22,35.3157044,21.696160212
2013-07-23,35.38948348,22.288741784
2013-07-24,35.7248246,22.250059964
2013-07-25,35.547390624,22.273378544
2013-07-26,35.57717168,22.44708168
2013-07-27,36.469564688,22.82563006
2013-07-28,36.81571312,22.79033844
2013-07-29,37.215187176,22.928076784
2013-07-30,37.688373152,22.54044728
2013-07-31,37.232828232,22.1271868
2013-08-01,37.73129992,21.592148032
2013-08-02,37.927869224,21.427621332
2013-08-03,38.275850064,21.844595776
2013-08-04,38.736084904,21.640008428
2013-08-05,38.875875272,21.588365296
2013-08-06,38.272071072,21.060154988
2013-08-07,37.404641328,21.252108856
2013-08-08,37.41480368,21.464692096
2013-08-09,37.659013656,21.703429792
2013-08-10,37.857870976,21.733315996
2013-08-11,38.028266864,21.699587516
2013-08-12,38.208343944,22.164522628
2013-08-13,38.771316968,22.566509356
2013-08-14,39.335954424,22.280509988
2013-08-15,39.123407128,22.546681148
2013-08-16,39.408400816,22.688902164
2013-08-17,39.223856816,22.518581808
2013-08-18,39.45867644,22.602844428
2013-08-19,39.631894328,22.896786124
2013-08-20,39.713370664,23.246084428
2013-08-21,39.969666592,23.38952624
2013-08-22,39.816203024,23.099575512
2013-08-23,39.6492344,22.657893788
2013-08-24,39.370148152,22.75614096
2013-08-25,39.148053728,22.730808668
2013-08-26,39.567585696,23.108025284
2013-08-27,39.602789656,23.05529472
2013-08-28,38.617997,23.124117116
2013-08-29,36.470914872,22.411760204
2013-08-30,35.69575692,23.150164368
2013-08-31,36.638428032,23.383969888
2013-09-01,36.46074048,23.352218468
2013-09-02,35.422577376,23.46420726
2013-09-03,35.396276424,23.43532786
2013-09-04,35.566729488,23.490057004
2013-09-05,37.233053464,23.479756552
2013-09-06,39.13140312,23.602803656
2013-09-07,39.001690592,23.85319114
2013-09-08,38.19433472,22.930869152
2013-09-09,37.537413256,22.822677992
2013-09-10,36.793149096,22.919001108
2013-09-11,37.570642416,22.540217972
2013-09-12,37.19896296,22.414821352
2013-09-13,36.847415328,22.323856024
2013-09-14,37.087066976,23.093205788
2013-09-15,38.183968056,23.117990332
2013-09-16,37.960257064,23.144693556
2013-09-17,36.771980496,23.047769608
2013-09-18,36.281492096,22.6539522
2013-09-19,35.591476744,22.470460116
2013-09-20,35.385558496,22.53190182
2013-09-21,36.45556256,22.98456342
2013-09-22,37.355612216,22.794205272
2013-09-23,37.16676544,22.484088892
2013-09-24,37.199336592,22.691176712
2013-09-25,37.786473848,22.466202412
2013-09-26,37.250668664,22.436541264
2013-09-27,37.049465384,22.527509504
2013-09-28,37.713413144,22.484583396
2013-09-29,,22.295513276
2013-09-30,37.572143024,22.396326436
2013-10-01,37.682427648,22.440417196
2013-10-02,38.479909536,23.162727212
2013-10-03,38.554167472,23.471634744
2013-10-04,38.38100716,23.258239428
2013-10-05,37.993908328,23.019569256
2013-10-06,38.107890568,22.644150428
2013-10-07,37.981009712,22.831887412
2013-10-08,38.18171532,23.416634692
2013-10-09,40.276784272,22.282285016
2013-10-10,41.329876736,22.592282896
2013-10-11,42.648658856,22.713571704
2013-10-12,42.6530882,22.751803132
2013-10-13,42.355652728,22.350208372
2013-10-14,42.13113876,22.148533796
2013-10-15,42.002564288,21.713733576
2013-10-16,42.173363456,22.47785196